Location: Arbon
(43.0005°N, 0.7472°E)
Time: 21:36:05
(UTC+00:00)

Explorer 7 - Pass Details

Date: 01 December 2020
Orbit: 484 x 678 km, 50.3° (Epoch: 25 January)

Event Time Altitude Azimuth Distance (km) Brightness Sun altitude
Rises 03:02:37 0° 274° (W) 2,908 - -44.3°
Reaches altitude 10° 03:05:10 10° 284° (WNW) 1,969 - -43.8°
Maximum altitude 03:09:16 33° 350° (N) 986 - -43.1°
Drops below altitude 10° 03:13:09 10° 56° (NE) 1,856 - -42.4°
Exits shadow 03:14:36 - 63° (ENE) 2,376 10.8 -42.1°
Sets 03:15:30 0° 66° (ENE) 2,717 11.1 -42.0°
